IRNSS-1G

Last updated on Sat Apr 13 2024 01:02:39 GMT+0100 (British Summer Time)

1 41469U 16027A 24103.54656920 -.00000342 00000+0 00000+0 0 9995 2 41469 3.2933 121.5051 0005581 313.0300 93.0350 1.00271550 29204
UTC large
Height (km)
Speed (km/s)
/
Latitude / Longitude
Inclination (degrees)
Orbital Period (minutes)
Azimuth
Elevation
Range (km)
Doppler Factor

Next 0 passes for location: London (51.5072 / 0.1276)

Sorry there are no passes over London.